Starlink 32850

operational
NORAD ID: 62950 Int'l Des: 2025-029 Owner: SPXS Country: US Constellation: starlink
LEOCIRCULAR

Über Starlink 32850

Beschreibung wird geladen...

Live-Position

3D-Globus wird geladen...

Nächste Überflüge

Höhenverlauf

Altitude vs Time

uPlot chart will show altitude changes over time

Zweizeiliger Elementsatz

1 62950U 25029C 25306.17097879 .00025217 00000-0 86053-3 0 9996
2 62950 53.1592 104.7867 0001156 260.8821 99.2049 15.30203795 41803
Epoch: 2. Nov. 2025 • Age: 37 hours

Aktueller Status

Höhe 482.5 km
Geschwindigkeit 7.62 km/s
Subsatellitenpunkt -27.02°S, 0.41°E
Startdatum 11. Feb. 2025
Alter 0.7 years
Typ internet

Technische Details

Klassifizierung Payload
Masse 730.00 kg
Trockenmasse 700.00 kg
Gesamtmasse 730.00 kg
Länge 0.30 m
Durchmesser 4.10 m
Spannweite 29.00 m
Form Box + pan
Hersteller SPXS
Bus-Typ Starlink V2M
Phasenstatus In Orbit
Besitzer/Staat SPXS/US

Große Konstellationen

Loading constellations...